Wind_Speed
11 8 7 8 8 7 6 12 16 20 21 21 22 24 24 21 18 18 19 15 14 15 15 14 14 13 13 13 14 15 12 11 10 15 14 13 12 12 12 12 12 11 12
8 4 4 6 9 7 8 14 18 21 22 22 22 22 19 19 18 19 18 17 16 15 14 14 14 14 14 15 16 15 11 10 13 15 13 13 12 11 12 12 11 10 12
7 6 10 12 13 12 13 15 18 20 23 23 23 23 20 22 18 17 17 18 16 15 14 15 15 16 18 15 16 15 12 11 13 16 17 12 11 10 12 10 10 9 8
14 17 22 23 21 17 17 20 21 22 25 25 24 23 23 20 20 18 17 18 18 17 16 16 17 18 17 16 15 15 14 12 12 13 13 12 9 9 9 9 8 7 7
18 22 20 18 20 21 21 23 24 24 26 27 27 26 25 21 21 19 19 19 20 19 18 18 18 18 18 17 15 14 12 12 12 11 11 12 10 9 10 9 9 7 6
16 16 20 16 15 18 22 25 26 28 30 28 29 28 27 25 21 20 20 21 21 20 19 19 18 18 16 14 12 11 11 10 11 12 12 11 11 10 11 10 8 7 6
18 19 21 17 16 17 19 24 27 30 32 31 33 32 29 28 24 21 20 22 22 21 21 21 20 18 15 13 11 11 11 12 11 13 13 13 12 10 10 9 8 7 6
19 18 19 18 17 17 18 20 27 29 32 34 37 37 35 31 28 25 22 21 22 23 23 22 22 17 14 14 13 12 13 13 14 15 15 13 12 12 11 9 8 7 6
16 18 19 20 20 19 18 19 22 26 32 36 44 40 39 41 36 23 23 22 21 25 24 23 20 17 16 14 14 14 13 13 15 15 14 13 13 11 10 9 8 7 7
19 23 22 21 22 22 23 21 21 25 33 37 26 22 41 39 33 34 32 22 23 25 24 23 22 19 16 15 15 15 14 13 15 15 15 13 12 11 8 8 8 9 9
22 23 24 22 21 25 25 26 23 26 28 34 39 38 21 22 30 32 25 25 25 25 24 23 22 20 20 19 18 17 14 16 16 16 14 12 10 9 9 10 10 10 10
22 21 25 24 24 25 27 28 27 25 27 29 32 34 29 21 19 31 32 25 26 25 24 24 24 21 21 21 19 18 18 16 17 16 14 12 11 10 10 10 9 10 10
21 22 25 24 25 24 23 26 27 26 26 27 27 27 23 24 25 22 36 33 30 26 27 26 24 23 23 19 16 16 18 18 17 16 14 13 11 11 11 10 10 9 10
24 22 24 23 23 23 19 19 24 25 25 26 26 26 25 26 25 33 39 34 30 30 29 27 27 24 21 21 20 18 18 15 16 17 17 14 13 12 12 10 10 10 10
22 21 22 21 20 19 16 13 17 21 21 22 23 26 27 27 24 36 40 36 34 34 33 33 30 25 24 21 20 20 17 17 18 18 17 16 15 13 12 11 11 12 12
23 20 20 18 17 15 12 10 15 18 18 21 25 28 27 31 31 24 39 41 37 33 32 31 29 26 25 23 22 21 20 19 18 19 18 17 16 13 11 11 12 12 12
16 18 18 17 15 14 13 11 13 17 20 22 28 36 38 37 36 33 42 38 38 36 31 30 30 25 24 23 23 24 19 18 19 21 20 18 16 14 13 12 12 12 11
17 18 18 17 14 14 12 14 17 19 21 22 17 22 25 33 37 44 40 38 39 36 34 35 32 30 28 24 23 22 21 20 21 23 22 20 18 16 14 14 13 13 12
16 19 18 16 13 14 14 14 16 18 19 19 18 23 26 31 40 43 38 35 37 37 37 36 34 31 27 24 22 21 22 20 20 22 22 20 19 18 16 16 15 14 13
18 18 18 16 13 13 14 15 14 15 15 18 11 19 31 37 43 43 37 34 34 36 37 36 36 31 26 24 24 23 23 21 21 22 22 20 19 18 18 17 16 14 13
20 16 17 16 14 14 13 14 16 14 13 10 13 10 32 37 40 41 34 32 36 35 37 36 36 31 30 30 27 29 28 23 21 21 23 22 19 18 18 18 16 15 15
14 15 16 16 14 14 14 14 15 15 14 14 10 15 19 30 37 39 34 32 33 36 37 37 36 33 32 31 31 29 28 28 26 24 25 23 21 22 21 20 19 18 17
13 11 14 15 13 13 14 15 14 15 18 19 18 19 19 23 20 33 37 35 35 36 36 36 35 33 33 33 34 33 33 32 28 27 24 24 26 26 24 22 21 22 21
16 12 11 13 12 10 11 14 11 11 16 15 16 19 20 26 35 30 39 40 42 39 40 38 37 34 34 36 35 35 31 32 30 27 28 30 31 32 27 23 24 24 24
15 13 10 11 11 8 8 10 9 10 16 15 15 19 19 30 29 32 37 36 36 31 39 41 39 44 39 38 38 34 37 35 28 32 30 32 37 36 23 26 25 27 27
19 16 10 10 9 7 6 4 7 8 11 11 8 10 16 25 38 37 32 37 35 36 29 42 46 46 43 40 37 37 35 35 33 33 31 28 40 20 25 27 25 26 27
Wind_Direction
257 256 281 291 287 296 265 240 244 223 216 222 218 217 225 225 227 234 241 226 219 213 209 209 212 205 193 185 172 170 167 182 174 163 155 156 159 150 143 136 135 132 129
246 232 270 294 293 285 243 233 236 232 225 217 214 213 215 234 231 230 237 232 223 215 207 204 205 201 197 190 186 192 192 177 168 158 150 166 164 159 150 146 142 143 140
261 281 292 298 292 276 268 234 234 235 229 216 215 218 218 223 225 227 231 232 222 216 210 205 203 200 194 198 195 197 193 182 171 164 173 176 162 163 161 165 172 172 165
287 284 287 287 282 271 262 241 228 234 230 222 223 221 215 216 222 218 225 228 223 209 211 210 205 202 199 201 195 194 192 179 175 177 183 185 193 189 181 179 183 166 167
295 298 295 286 273 255 256 252 233 226 233 233 230 226 226 220 220 215 215 218 216 210 206 208 209 203 198 198 200 194 183 178 176 174 179 183 190 186 178 168 162 157 161
299 302 300 294 279 256 248 248 240 230 230 236 235 227 224 223 216 218 213 211 213 212 208 206 207 206 200 201 193 185 183 184 179 179 181 179 175 173 166 168 166 164 170
312 303 303 296 290 263 250 245 241 233 233 234 234 228 223 225 217 216 216 212 209 211 207 203 201 201 195 194 184 182 176 183 178 181 176 180 171 178 177 171 169 175 181
315 306 302 299 290 274 261 250 242 238 235 240 227 233 212 215 206 208 209 212 211 203 201 203 202 193 187 186 174 182 185 181 184 183 185 182 177 182 179 178 183 187 188
319 317 307 300 288 278 271 258 251 238 236 235 226 208 224 205 203 196 202 205 211 204 202 202 198 184 188 181 174 181 193 189 193 194 195 184 180 187 189 191 192 179 178
319 328 317 299 287 276 269 262 250 241 237 235 212 205 227 212 219 203 195 198 201 206 204 205 197 182 182 184 186 179 195 201 207 202 191 184 188 197 197 192 179 169 173
313 318 311 296 281 274 266 259 249 244 241 240 249 240 262 236 223 209 184 200 199 206 201 203 200 183 179 185 191 189 196 209 205 197 189 188 192 205 195 185 180 175 173
312 309 304 297 293 280 268 259 249 240 241 241 244 252 250 254 235 205 184 187 199 204 206 204 204 185 180 193 188 187 200 205 201 197 190 190 190 196 197 197 190 183 178
308 303 304 300 300 293 274 255 247 239 236 241 242 242 244 232 210 239 195 189 195 196 206 207 203 191 187 187 189 197 203 197 199 196 193 192 193 197 203 191 194 190 183
306 299 305 304 311 306 286 263 239 235 238 239 241 241 234 223 228 210 197 189 194 201 207 209 210 194 188 190 188 200 208 199 205 199 196 192 197 202 203 194 191 184 180
306 297 306 304 311 308 292 249 227 231 240 247 243 237 235 231 228 216 195 189 197 202 205 206 210 200 196 197 197 203 206 206 206 205 198 196 201 201 206 195 193 184 175
304 294 303 299 305 300 293 257 229 235 245 251 256 248 239 234 232 241 198 190 198 198 205 210 213 205 198 196 199 203 204 206 208 210 205 202 199 199 208 202 195 186 183
303 290 303 297 299 296 279 257 246 243 253 258 265 252 243 231 229 238 195 194 196 196 201 209 211 206 208 204 202 205 205 210 214 214 209 207 200 198 202 208 193 198 198
304 301 301 295 291 288 276 264 256 256 259 265 269 237 222 222 217 202 191 197 199 197 204 207 210 208 209 208 210 211 205 211 216 216 212 207 203 202 204 208 201 202 210
287 304 295 293 282 282 280 266 261 263 266 271 265 218 219 214 200 187 190 197 198 200 202 203 208 211 216 216 213 213 214 211 213 219 215 211 210 204 207 206 208 212 217
276 295 293 293 281 278 281 279 268 262 266 275 237 219 201 187 178 181 192 197 198 202 204 206 209 209 217 221 215 215 218 216 213 213 216 216 216 212 213 216 211 215 220
267 285 287 297 282 275 280 281 274 262 247 251 242 223 190 187 180 180 189 197 203 206 206 205 207 214 217 216 216 218 218 217 212 208 209 209 213 216 218 222 220 224 232
255 275 287 292 284 279 288 285 268 254 219 213 224 179 185 187 193 192 190 200 203 205 206 208 212 213 216 220 218 222 224 220 218 213 210 211 211 217 220 227 231 232 237
238 270 284 290 287 283 296 295 278 246 207 210 213 213 213 220 221 207 197 201 205 207 212 214 218 219 222 223 221 224 224 224 223 222 220 226 233 228 222 226 234 239 240
235 249 279 286 285 287 301 295 282 216 211 219 232 235 233 227 220 218 220 207 203 206 210 219 220 223 223 227 228 227 227 234 233 226 231 240 235 236 236 237 238 244 245
223 243 271 285 287 288 304 296 272 191 188 198 217 237 240 217 211 222 218 218 222 220 214 214 216 218 220 228 229 229 229 227 227 236 233 238 238 228 245 254 251 251 251
224 235 265 278 284 285 305 304 251 215 196 206 215 223 211 216 226 219 225 231 223 226 229 221 222 227 219 229 228 232 236 240 237 232 239 250 266 231 243 249 252 253 253
Height
3119 3119 3119 3120 3120 3119 3120 3122 3123 3124 3124 3124 3125 3126 3127 3128 3129 3130 3131 3133 3135 3137 3138 3139 3140 3142 3143 3144 3146 3147 3149 3150 3151 3153 3155 3156 3157 3158 3159 3160 3161 3162 3163
3118 3118 3118 3118 3119 3117 3117 3120 3121 3122 3123 3123 3123 3125 3126 3128 3129 3130 3131 3132 3134 3136 3137 3138 3140 3141 3143 3144 3146 3147 3149 3150 3151 3153 3155 3157 3158 3159 3160 3161 3162 3164 3164
3116 3116 3116 3116 3117 3117 3116 3117 3119 3120 3121 3121 3122 3123 3124 3127 3127 3128 3129 3131 3133 3134 3136 3137 3138 3140 3142 3144 3145 3147 3148 3149 3151 3154 3155 3157 3158 3160 3160 3162 3162 3163 3164
3114 3114 3113 3113 3114 3114 3114 3114 3115 3117 3119 3120 3121 3122 3123 3124 3125 3126 3128 3129 3131 3132 3134 3135 3137 3139 3141 3143 3145 3146 3148 3150 3152 3153 3155 3156 3158 3160 3161 3161 3164 3164 3164
3111 3111 3110 3109 3109 3110 3111 3112 3112 3115 3118 3119 3120 3121 3122 3122 3123 3124 3126 3128 3129 3131 3132 3134 3136 3139 3140 3143 3145 3147 3148 3150 3152 3154 3155 3156 3158 3159 3161 3162 3164 3164 3165
3108 3107 3106 3106 3105 3105 3107 3108 3110 3112 3114 3115 3118 3119 3119 3120 3121 3123 3124 3126 3128 3130 3132 3133 3136 3139 3141 3143 3144 3147 3149 3150 3152 3154 3155 3156 3158 3160 3160 3162 3163 3165 3166
3104 3104 3103 3102 3102 3102 3102 3104 3107 3108 3111 3111 3113 3114 3116 3118 3119 3121 3123 3124 3125 3128 3130 3131 3134 3138 3141 3143 3145 3147 3148 3150 3152 3154 3155 3157 3158 3160 3161 3162 3164 3165 3166
3101 3100 3099 3099 3098 3099 3099 3100 3102 3104 3108 3107 3106 3109 3107 3112 3113 3117 3120 3122 3125 3126 3128 3130 3132 3137 3139 3142 3144 3146 3148 3149 3152 3154 3155 3156 3157 3159 3160 3162 3163 3164 3165
3099 3098 3096 3095 3095 3095 3095 3096 3098 3101 3102 3102 3086 3086 3097 3100 3103 3110 3116 3120 3123 3125 3126 3128 3132 3137 3138 3141 3143 3146 3148 3150 3152 3154 3155 3156 3158 3159 3161 3162 3163 3164 3165
3095 3094 3092 3092 3090 3090 3090 3091 3093 3094 3094 3096 3083 3083 3096 3102 3106 3110 3114 3118 3122 3123 3124 3127 3132 3136 3138 3140 3143 3144 3148 3150 3153 3154 3155 3156 3158 3160 3161 3162 3163 3164 3166
3093 3091 3089 3088 3087 3085 3084 3084 3087 3088 3090 3090 3091 3087 3095 3098 3102 3107 3108 3117 3119 3121 3122 3126 3131 3135 3137 3139 3142 3144 3146 3150 3153 3155 3155 3157 3159 3161 3162 3162 3163 3164 3166
3090 3088 3086 3084 3081 3079 3077 3077 3080 3082 3083 3085 3087 3088 3093 3096 3100 3103 3106 3112 3116 3118 3121 3124 3128 3132 3135 3138 3141 3143 3147 3150 3152 3154 3155 3157 3159 3160 3162 3163 3164 3164 3165
3087 3084 3082 3079 3075 3072 3070 3070 3072 3076 3078 3080 3083 3084 3087 3091 3095 3100 3104 3107 3111 3113 3118 3121 3126 3130 3134 3137 3142 3144 3147 3149 3151 3153 3155 3157 3158 3159 3162 3162 3164 3165 3167
3084 3081 3079 3075 3070 3065 3064 3063 3065 3069 3072 3076 3078 3080 3084 3087 3092 3095 3098 3103 3108 3112 3115 3120 3125 3130 3132 3136 3139 3141 3145 3147 3150 3152 3154 3155 3157 3159 3160 3161 3163 3165 3167
3080 3078 3075 3072 3067 3063 3061 3060 3063 3067 3069 3071 3073 3076 3080 3083 3086 3091 3095 3100 3105 3110 3113 3117 3122 3127 3130 3134 3138 3141 3143 3146 3149 3151 3152 3153 3156 3157 3160 3161 3163 3164 3166
3076 3074 3073 3069 3065 3063 3062 3060 3062 3065 3067 3068 3068 3069 3072 3078 3081 3085 3092 3097 3103 3109 3112 3116 3120 3126 3130 3132 3138 3139 3141 3144 3147 3150 3151 3153 3155 3157 3160 3161 3163 3164 3166
3073 3071 3070 3067 3063 3061 3061 3060 3060 3062 3063 3063 3063 3060 3064 3068 3074 3080 3088 3094 3101 3106 3110 3114 3118 3124 3127 3132 3136 3138 3139 3142 3146 3149 3151 3152 3153 3156 3159 3161 3162 3165 3166
3070 3069 3067 3064 3061 3058 3058 3059 3059 3058 3058 3058 3056 3055 3056 3061 3066 3076 3084 3093 3099 3104 3108 3112 3115 3120 3124 3129 3133 3136 3139 3141 3144 3147 3149 3151 3152 3155 3157 3160 3161 3163 3165
3066 3065 3064 3062 3059 3057 3055 3056 3056 3055 3054 3052 3052 3052 3053 3054 3062 3073 3084 3090 3096 3101 3106 3110 3113 3119 3123 3126 3130 3134 3137 3140 3142 3146 3147 3149 3151 3152 3156 3158 3159 3162 3164
3063 3062 3061 3060 3057 3055 3054 3053 3052 3051 3050 3048 3047 3048 3050 3054 3059 3070 3082 3088 3094 3099 3103 3107 3112 3114 3121 3125 3128 3132 3136 3138 3139 3142 3145 3146 3149 3151 3154 3156 3157 3160 3162
3059 3059 3058 3057 3055 3054 3052 3050 3049 3049 3049 3048 3047 3046 3049 3056 3062 3070 3078 3086 3091 3096 3101 3105 3109 3112 3117 3120 3125 3128 3131 3134 3137 3138 3141 3143 3146 3149 3151 3154 3156 3157 3159
3055 3055 3054 3054 3052 3051 3049 3048 3046 3045 3047 3048 3049 3051 3054 3058 3063 3068 3075 3082 3087 3093 3098 3102 3105 3109 3113 3117 3121 3126 3128 3131 3134 3135 3137 3140 3142 3145 3147 3150 3153 3154 3155
3051 3052 3051 3051 3050 3049 3047 3044 3042 3042 3043 3047 3050 3054 3056 3059 3062 3066 3073 3079 3084 3090 3095 3099 3103 3107 3110 3114 3117 3122 3123 3126 3132 3133 3136 3138 3141 3141 3142 3145 3149 3150 3151
3048 3050 3050 3048 3047 3047 3045 3041 3039 3040 3042 3046 3050 3053 3056 3058 3060 3064 3069 3073 3079 3086 3090 3097 3101 3104 3108 3111 3114 3118 3120 3125 3128 3130 3132 3133 3137 3139 3140 3142 3143 3145 3146
3045 3047 3047 3046 3045 3045 3043 3041 3038 3039 3041 3044 3047 3049 3051 3054 3057 3063 3065 3069 3075 3080 3084 3090 3094 3098 3102 3107 3110 3114 3117 3118 3122 3126 3128 3130 3130 3133 3135 3138 3138 3139 3140
3041 3043 3044 3044 3044 3043 3042 3041 3040 3039 3040 3043 3045 3047 3048 3050 3053 3060 3064 3069 3072 3076 3080 3083 3088 3092 3097 3102 3106 3110 3113 3116 3118 3120 3123 3124 3123 3125 3130 3131 3131 3132 3134